Location: White Mills Observatory
(37.5374°N, 86.0303°W)
Time: 12:39:32
(UTC-05:00)

Hubble Space Telescope - Visible Passes

Search period start: 31 January 2015 00:00
Search period end: 10 February 2015 00:00
Orbit: 544 x 548 km, 28.5° (Epoch: 31 January)

Date Brightness Start Highest point End Pass type
(mag) Time Alt. Az. Time Alt. Az. Time Alt. Az.
31 Jan 2.5 19:34:52 10° SW 19:38:12 23° S 19:39:39 19° SSE visible
01 Feb 2.5 19:26:45 10° SW 19:30:06 23° S 19:32:12 16° SE visible
02 Feb 2.6 19:18:40 10° SW 19:22:00 23° S 19:24:46 13° SE visible
02 Feb 3.9 21:00:13 10° SW 21:00:17 10° SW 21:00:17 10° SW visible
03 Feb 2.7 19:10:36 10° WSW 19:13:54 22° S 19:17:11 10° SE visible
03 Feb 3.8 20:52:34 10° SW 20:52:53 11° SW 20:52:53 11° SW visible
04 Feb 2.8 19:02:35 10° WSW 19:05:47 21° S 19:08:58 10° SE visible
04 Feb 3.7 20:45:16 10° SW 20:45:33 10° SSW 20:45:33 10° SSW visible
05 Feb 3.0 18:54:37 10° WSW 18:57:40 19° S 19:00:41 10° SE visible
06 Feb 3.2 18:46:42 10° SW 18:49:31 17° SSW 18:52:18 10° SSE visible
07 Feb 3.4 18:38:54 10° SW 18:41:22 15° SSW 18:43:47 10° SSE visible
